Regional Weather Roundup
Issued by NWS

Home | Current Version | Previous Version | Graphics & Text | Print | Product List | Glossary On
Versions: 1 2 3 4 5 6 7 8 9 10 11 12 13 14 15 16 17 18 19 20 21 22 23 24 25 26 27 28 29 30 31 32 33 34 35 36 37 38 39 40 41 42 43 44 45 46 47 48 49 50
000
ASUS43 KTOP 010408
RWRKS

WEATHER ROUNDUP FOR KANSAS
NATIONAL WEATHER SERVICE GOODLAND KS
1000 PM CST TUE FEB 28 2017

NOTE:  "FAIR" INDICATES FEW OR NO CLOUDS BELOW 12,000 FEET WITH NO
SIGNIFICANT WEATHER AND/OR OBSTRUCTIONS TO VISIBILITY.

KSZ001>006-013>018-027>032-041>047-010500-
NORTHWEST KANSAS

CITY           SKY/WX    TMP DP  RH WIND       PRES   REMARKS
GOODLAND       CLOUDY    29  24  82 W14       29.92R WCI  18
HAYS           CLOUDY    40  25  55 NW17      29.89R WCI  31
HILL CITY      CLOUDY    39  19  44 NW13      29.90R WCI  31
RUSSELL        CLOUDY    41  26  55 NW15      29.85R
$$

KSZ061>065-074>080-084>089-010500-
SOUTHWEST KANSAS

CITY           SKY/WX    TMP DP  RH WIND       PRES   REMARKS
DODGE CITY     MOCLDY    37  24  59 N21G32    29.88R WCI  26
ELKHART          N/A     33  13  43 N10         N/A  WCI  25
GARDEN CITY    PTCLDY    34  22  61 N25       29.89R WCI  21
GREAT BEND     CLOUDY    41  25  53 N26G35    29.84R
LIBERAL        CLEAR     37  16  41 N25       29.92R WCI  26
PRATT          CLOUDY    42  20  43 N36G44    29.82R
$$

KSZ066>073-081>083-090>101-010500-
SOUTHEAST KANSAS

CITY           SKY/WX    TMP DP  RH WIND       PRES   REMARKS
CHANUTE        MOCLDY    58  38  47 NW13G28   29.59R THUNDER
COFFEYVILLE    CLOUDY    69  60  73 S17       29.56F
HUTCHINSON     CLOUDY    46  32  58 N22G39    29.75R
MEDICINE LODGE   N/A     47  27  45 N30G39    29.76R
NEWTON         CLOUDY    45  34  65 N32G41    29.72R
PARSONS        CLOUDY    68  59  73 S17G29    29.54F
WICHITA INTL   MOCLDY    49  36  61 N26G36    29.73R
WICHITA JABRA  CLEAR     47  36  65 N24G39    29.73R
WICHITA MCCONL CLEAR     49  36  60 N26G36    29.71R
WINFIELD       TSTM      52  40  63 N28G37    29.67R
$$

KSZ007>012-019>026-033>040-048>060-102>105-010500-
NORTHEAST KANSAS

CITY           SKY/WX    TMP DP  RH WIND       PRES   REMARKS
CONCORDIA      CLOUDY    43  32  65 NW9       29.81R
EMPORIA        PTCLDY    46  39  76 NW22G31   29.68R
LAWRENCE       MOCLDY    48  39  71 NW26G33   29.67R
MANHATTAN      LGT RAIN  44  35  70 N13G28    29.77R
MARYSVILLE     CLOUDY    39  34  81 N15       29.80R WCI  31
OLATHE IND     PTCLDY    50  41  71 NW21G30   29.61R
OLATHE EXE     PTCLDY    50  42  74 N16G28    29.61R
SALINA         CLOUDY    45  35  68 N21       29.78S
TOPEKA BILLARD CLOUDY    47  39  74 NW18G28   29.70R
TOPEKA FORBES  CLOUDY    48  37  65 NW28G33   29.68R
$$




USA.gov is the U.S. government's official web portal to all federal, state and local government web resources and services.